Regional Weather Roundup
Issued by NWS

Home | Current Version | Previous Version | Text Only | Print | Product List | Glossary On
Versions: 1 2 3 4 5 6 7 8 9 10 11 12 13 14 15 16 17 18 19 20 21 22 23 24 25 26 27 28 29 30 31 32 33 34 35 36 37 38 39 40 41 42 43 44 45 46 47 48 49 50
000
ASHW40 PHFO 310032
RWRHI

WEATHER ROUNDUP FOR HAWAII
NATIONAL WEATHER SERVICE HONOLULU HI
200 PM HST SAT JUL 30 2016

THIS IS AN AUTOMATED REPORT THAT HAS NOT BEEN QUALITY CONTROLLED.

NOTE..."FAIR" INDICATES FEW OR NO CLOUDS BELOW 12,000 FEET WITH NO
SIGNIFICANT WEATHER AND/OR OBSTRUCTIONS TO VISIBILITY.

* - THESE SITES REPORT LIMITED FIELDS

HIZ001>004-310100-
KAUAI-NIIHAU-

CITY           SKY/WX    TMP DP  RH WIND       PRES   REMARKS
LIHUE APT      MOSUNNY   86  71  60 NE16      30.01F HX  91
PORT ALLEN*      N/A     88 N/A N/A NE20G29     N/A
POIPU*           N/A     86 N/A N/A NE9G20      N/A
PRINCEVILLE*     N/A     81 N/A N/A E13G20      N/A
KOKOLE POINT*  NOT AVBL
MOLOAA DAIRY*    N/A     84  72  65 E6G16       N/A
WAIMEA HTS*    NOT AVBL
PUU OPAE*      NOT AVBL
PUU LUA*       NOT AVBL
MAKAHA RIDGE*    N/A     82  66  57 SE2G9       N/A
$$

HIZ005>011-310100-
OAHU-

CITY           SKY/WX    TMP DP  RH WIND       PRES   REMARKS
HONOLULU       MOSUNNY   88  66  48 E15G21    29.95F HX  90
KALAELOA       SUNNY     89  65  44 NE13G22   29.96F HX  91
KANEOHE MCB    PTSUNNY   84  71  65 NE10G17   29.96F
WHEELER FIELD  FAIR      81  69  65 E10G18    29.99F
BELLOWS*         N/A    N/A N/A N/A NE16        N/A
KAHUKU*          N/A    N/A N/A N/A VRB1        N/A
WHEELER*       NOT AVBL
WAIANAE HARBOR NOT AVBL
DILLINGHAM*      N/A     70  50  49 MISG        N/A
KAHUKU TRN*      N/A     82  72  69 W8G22       N/A
KAWAILOA*        N/A     77  68  73 E12G24      N/A
KII*             N/A     82  72  69 E15         N/A
MAKUA RANGE*     N/A     73  55  53 W13G24      N/A
OAHU FOREST NW NOT AVBL
SCHOFIELD BRK*   N/A     81  66  61 MISG        N/A
SCHOFIELD S*   NOT AVBL
WAIANAE VLY*   NOT AVBL
KUAOKALA*      NOT AVBL
HONOULIUULI*   NOT AVBL
MOKUOLOE IS*   NOT AVBL
PALEHUA*       NOT AVBL
WAIAWA PHB*    NOT AVBL
$$

HIZ012>013-310100-
MOLOKAI-

CITY           SKY/WX    TMP DP  RH WIND       PRES   REMARKS
MOLOKAI AIRPT  SUNNY     85  67  54 NE18G31   29.97F
KALAUPAPA      NOT AVBL
MAKAPULAPAI*     N/A     84  70  61 E16G22      N/A
MOLOKAI 1*     NOT AVBL
PUU ALII*        N/A     69  65  86 N2G10       N/A
$$

HIZ016-310100-
KAHOOLAWE-

CITY           SKY/WX    TMP DP  RH WIND       PRES   REMARKS
KAHOOLAWE*       N/A     77 N/A N/A E1          N/A
HAKIOAWA*        N/A     80  69  67 MISG      30.38
HONOKANAIA*      N/A     88  69  53 E18G29      N/A  HX  92
KANELOA*         N/A     81  68  65 E18G26    30.04F
KEALIALALO*    NOT AVBL
LUA MAKIKA*    NOT AVBL
$$

HIZ014>015-310100-
LANAI-

CITY           SKY/WX    TMP DP  RH WIND       PRES   REMARKS
LANAI CITY     PTSUNNY   81  68  64 NE21      30.00F
LANAI 1*       NOT AVBL
$$

HIZ017>028-310100-
MAUI-

CITY           SKY/WX    TMP DP  RH WIND       PRES   REMARKS
KAHULUI        MOSUNNY   88  68  51 NE23G31   29.95F HX  91
KAPALUA-W MAUI NOT AVBL
HANA AIRPORT     N/A     82  72  69 N7        30.01S
HANA*            N/A     82 N/A N/A NE8         N/A
HALEAKALA SUMM   N/A     55  46  71 SE8         N/A
MAALAEA BAY*     N/A     86 N/A N/A N20G32      N/A
HALEAKALA*     NOT AVBL
KAUPO GAP*     NOT AVBL
KULA 1*          N/A     58  57  98 N3          N/A
$$

HIZ023>026-310100-
BIG ISLAND OF HAWAII COAST AND LOWER SLOPES-

CITY           SKY/WX    TMP DP  RH WIND       PRES   REMARKS
KAILUA KONA    MOSUNNY   87  70  56 SW12      29.92S HX  92
HILO           MOSUNNY   85  71  63 NE10      29.96F HX  90
HONOKAA*         N/A     77 N/A N/A VRB1        N/A
KAWAIHAE MWT*    N/A     86 N/A N/A W12         N/A
KAWAIHAE*        N/A     82 N/A N/A SW7       29.92F
SOUTH POINT*     N/A     81 N/A N/A N17G26      N/A
UPOLU AIRPORT*   N/A    N/A N/A N/A NE20G25     N/A
KAMUELA*       CLOUDY    77  63  61 N20       30.05F
HAKALAU*         N/A     58  56  92 SE5G10      N/A
KALOKO-HONOKO*   N/A     88  70  55 SW8G14    29.92S HX  92
PALI 2*          N/A     77  63  61 SW12G22     N/A
KEALAKOMO*       N/A     86  68  54 E18G26      N/A
KAUPULEHU*     NOT AVBL
KAPAPALA*        N/A     78  66  66 E7G13       N/A
LOWER KAHUKU*    N/A     70  64  83 E3G12       N/A
PUHE CS*         N/A     88  64  45 SW3G10      N/A
PUHO CS*         N/A     86  69  55 W3          N/A  HX  90
PTA KEAMUKU*     N/A    N/A N/A N/A CALM        N/A
WAIKOLOA*      NOT AVBL
$$

HIZ027>028-310100-
BIG ISLAND OF HAWAII INTERIOR AND SUMMMITS-

CITY           SKY/WX    TMP DP  RH WIND       PRES   REMARKS
BRADSHAW FIELD PTSUNNY   70  57  64 W10G21    30.26F
MK VISITOR CEN   N/A     55  46  71 N3          N/A
MAUNA KEA*       N/A     50  10  20 S5          N/A
MAUNA LOA*       N/A     52  43  71 MISG        N/A
MAUNA LOA 1*   NOT AVBL
PTA KIPUKA*      N/A    N/A N/A N/A N9G18       N/A
PTA RANGE 17*    N/A     73  59  60 W14G20      N/A
PTA WEST*        N/A     55  45  67 NW16G24     N/A
NENE CABIN*      N/A     61  52  72 E8G16       N/A
AHUMOA*        NOT AVBL
PTA PORTABLE*  NOT AVBL
PUU MALI*        N/A     64  57  77 NE20G31     N/A
$$

HIC003-310100-
NORTHWEST ISLANDS-

CITY           SKY/WX    TMP DP  RH WIND       PRES   REMARKS
MIDWAY ISLAND  MOSUNNY   82  73  74 SE8       30.17F
MIDWAY NOS*      N/A     81 N/A N/A MISG      30.16S
FRENCH FRIGATE NOT AVBL
$$

PHZ110>124-180-310100-
BUOY REPORTS

STATION/POSITION TIME  TEMP    WIND        PRES    WAVE   SWELL
                       AIR SEA DIR/SP/G            HT/PER HT/DIR
                 (UTC) (F)     (DEG/KT/KT) (MB)    (FT/S) (FT/D)
BUOY 51001       NOT AVBL
BUOY 51101       2350   78 79   60/ 17/ 21 1017.4F   8/ 8   7/100
BUOY 51100       NOT AVBL
BUOY 51002       2350   82 82   80/ 14/ 16 1014.1F   8/ 9   7
BUOY 51003       2350   79 82   90/ 17/ 21 1013.3F   6/ 8   3/ 80
BUOY 51004       2350   81 82   70/ 10/ 12 1012.7F   6/ 9   5/ 60
BARBERS PT BUOY  NOT AVBL
WAIMEA BAY BUOY  0004      80                N/A     5/ 8   2/ 30
KAILUA BAY BUOY  0011      80                N/A     7/ 9   2/ 70
LANAI BUOY       0015      81                N/A     2/11   2/180
BARBERS PT 2     NOT AVBL
PAUWELA MAUI     0009      80                N/A     6/ 9   2/ 50
HILO             0012      82                N/A     6/10   2/ 60
KANEOHE BAY BUOY 0006      79                N/A     6/ 8   2/ 40
HANALEI KAUAI    NOT AVBL
KAHULUI HARBOR   0000      81                N/A
HONOLULU HARBOR  0000      80                N/A
KILO NALU        NOT AVBL
HILO HARBOR      0000      80                N/A
MOKUOLOE         2300   80 82   70/ 14/ 16 1015.6F
NAWILIWILI       0000      81                N/A
WHOTS BUOY       NOT AVBL
BUOY 51028       NOT AVBL
$$

......................KEY........................................
  SKY/WX - SKY CONDITIONS/PRESENT WEATHER
  TMP    - TEMPERATURE IN FAHRENHEIT
  DWPT   - DEWPOINT IN FAHRENHEIT
  RH     - RELATIVE HUMIDITY IN PERCENT
  WIND   - DIRECTION AND SPEED /MPH FOR ISLANDS...KTS FOR BUOYS/
  PRES   - MEAN SEA LEVEL PRESSURE IN INCHES OF HG
  VSB    - VISIBILITY IN MILES
  HX     - HEAT INDEX
  WCI    - WIND CHILL INDEX
  VRB    - VARIABLE WIND DIRECTION
  N/A    - NOT AVAILABLE




USA.gov is the U.S. government's official web portal to all federal, state and local government web resources and services.